FW3197 Weather Reports


time (UTC)temp
F
wind
direction
speed
knots
gust
knots
rain 1hr
in
rain 24hr
in
rain mn
in
humidity
%
barometer
mb
20260507084503 48 274 0.0 2.6 0.01 0.40 0.02 89 1006.3
20260507083007 49 281 0.0 3.5 0.00 0.39 0.01 89 1006.1
20260507081501 49 278 0.0 2.6 0.00 0.39 0.01 88 1006.1
20260507080058 50 284 0.0 4.3 0.00 0.39 0.01 86 1006.3
20260507074556 50 267 0.9 5.2 0.00 0.39 0.01 86 1006.4
20260507073058 50 213 0.9 8.7 0.00 0.39 0.01 86 1006.1
20260507071552 50 287 0.0 7.0 0.00 0.39 0.01 87 1006.0
20260507070104 51 241 0.9 3.5 0.00 0.39 0.01 88 1005.6
20260507064553 51 268 0.0 5.2 0.00 0.39 0.01 89 1005.7
20260507063053 51 316 0.0 4.3 0.00 0.39 0.01 89 1005.5
20260507061546 52 226 0.9 3.5 0.00 0.39 0.01 90 1005.6
20260507060048 52 325 0.9 3.5 0.00 0.39 0.01 90 1005.8
20260507054544 52 307 0.9 5.2 0.00 0.39 0.01 91 1005.9
20260507053040 53 93 0.0 3.5 0.00 0.39 0.01 91 1006.0
20260507051539 53 280 0.0 1.7 0.01 0.39 0.01 91 1006.1
20260507050059 53 285 0.0 3.5 0.01 0.39 0.01 91 1005.9
20260507044546 54 75 0.0 3.5 0.01 0.39 0.01 91 1005.6
20260507043032 54 287 0.0 4.3 0.01 0.39 0.01 91 1005.8
20260507041529 55 316 0.9 4.3 0.00 0.38 0.00 91 1005.8
20260507040024 57 94 0.9 7.0 0.00 0.38 0.00 92 1005.5
20260507034519 58 319 0.0 3.5 0.00 0.38 0.38 94 1005.2
20260507033026 59 231 0.9 3.5 0.00 0.38 0.38 94 1004.8
20260507031515 59 155 0.9 4.3 0.00 0.38 0.38 94 1004.4
20260507030015 59 134 0.0 3.5 0.00 0.38 0.38 94 1004.4
20260507024517 59 195 0.9 6.1 0.00 0.38 0.38 94 1004.5
20260507023013 59 279 0.0 2.6 0.00 0.38 0.38 94 1004.3
20260507021519 59 229 0.9 5.2 0.00 0.38 0.38 94 1004.3
20260507020020 59 127 0.9 2.6 0.00 0.38 0.38 94 1004.6
20260507014514 59 133 0.0 2.6 0.00 0.38 0.38 94 1004.7
20260507013011 59 256 0.0 7.8 0.00 0.38 0.38 94 1004.8
20260507011516 59 274 0.0 4.3 0.00 0.38 0.38 94 1004.9
20260507010021 59 245 1.7 7.8 0.00 0.38 0.38 94 1004.9
20260507004508 59 151 0.9 8.7 0.00 0.38 0.38 95 1004.7
20260507003006 59 167 0.0 3.5 0.02 0.38 0.38 95 1004.9
20260507001507 59 182 0.0 2.6 0.07 0.38 0.38 95 1004.5
20260507000005 59 147 0.0 4.3 0.10 0.38 0.38 95 1004.5
20260506234504 59 126 0.0 2.6 0.14 0.38 0.38 95 1004.4
20260506233002 60 172 0.9 4.3 0.13 0.36 0.36 94 1004.4
20260506231600 60 166 0.9 4.3 0.11 0.32 0.32 94 1004.6
20260506230059 60 155 1.7 6.1 0.08 0.28 0.28 94 1004.6
20260506224556 60 141 1.7 5.2 0.05 0.24 0.24 94 1004.9
20260506223059 60 143 0.9 3.5 0.04 0.23 0.23 93 1005.0
20260506221554 60 151 0.0 5.2 0.03 0.21 0.21 93 1005.0
20260506220047 60 141 0.0 5.2 0.04 0.20 0.20 93 1005.1
20260506214545 60 210 0.9 5.2 0.05 0.19 0.19 93 1005.3
20260506213043 61 157 0.0 5.2 0.09 0.19 0.19 92 1005.5
20260506211540 61 252 0.9 4.3 0.12 0.18 0.18 92 1005.6
20260506210040 62 278 0.0 8.7 0.12 0.16 0.16 92 1005.7
20260506204548 62 142 0.0 2.6 0.10 0.13 0.13 92 1005.7
20260506203034 63 117 0.0 2.6 0.09 0.10 0.10 90 1005.7
20260506201535 63 193 0.0 2.6 0.06 0.06 0.06 88 1005.6
20260506200028 64 155 0.0 4.3 0.04 0.04 0.04 86 1005.6
20260506194527 65 210 0.9 8.7 0.03 0.03 0.03 83 1005.5
20260506193024 67 131 0.9 5.2 0.01 0.01 0.01 79 1005.7
20260506191523 68 299 2.6 6.1 0.00 0.00 0.00 74 1005.7
20260506190021 69 121 0.9 7.0 0.00 0.00 0.00 71 1005.7
20260506184519 70 171 1.7 8.7 0.00 0.00 0.00 70 1005.6
20260506183016 71 144 3.5 9.6 0.00 0.00 0.00 66 1005.5
20260506181520 72 11 2.6 8.7 0.00 0.00 0.00 63 1005.6
20260506180015 73 92 0.9 7.8 0.00 0.00 0.00 64 1005.9
20260506174510 73 146 4.3 12.2 0.00 0.00 0.00 62 1005.9
20260506173008 74 110 2.6 9.6 0.00 0.00 0.00 62 1005.9
20260506171510 73 132 1.7 7.0 0.00 0.00 0.00 63 1006.2
20260506170100 73 275 1.7 5.2 0.00 0.00 0.00 63 1006.5
20260506164558 72 246 2.6 8.7 0.00 0.00 0.00 63 1006.7
20260506163054 72 183 1.7 7.8 0.00 0.00 0.00 64 1006.8
20260506161602 72 301 1.7 9.6 0.00 0.00 0.00 65 1007.1
20260506160047 71 245 0.9 6.1 0.00 0.00 0.00 67 1007.6
20260506154544 71 243 2.6 11.3 0.00 0.00 0.00 67 1008.0
20260506153041 71 277 3.5 9.6 0.00 0.00 0.00 66 1008.0
20260506151559 71 148 5.2 10.4 0.00 0.00 0.00 66 1008.2
20260506150038 71 328 2.6 7.0 0.00 0.00 0.00 67 1008.3
20260506144535 70 229 3.5 9.6 0.00 0.00 0.00 68 1008.2
20260506143043 70 167 2.6 8.7 0.00 0.00 0.00 69 1008.1
20260506141530 69 174 3.5 8.7 0.00 0.00 0.00 71 1008.1
20260506140033 68 148 0.9 7.8 0.00 0.00 0.00 73 1008.1
20260506134523 67 233 2.6 7.8 0.00 0.00 0.00 74 1008.5
20260506133024 67 259 0.9 6.1 0.00 0.00 0.00 74 1008.7
20260506131525 66 159 1.7 6.1 0.00 0.00 0.00 75 1008.5
20260506130020 66 212 2.6 7.0 0.00 0.00 0.00 74 1008.7
20260506124514 66 137 2.6 7.0 0.00 0.00 0.00 76 1008.6
20260506123012 65 192 0.9 4.3 0.00 0.00 0.00 77 1008.8
20260506121511 64 162 0.9 4.3 0.00 0.00 0.00 79 1008.6
20260506120009 64 281 0.9 6.1 0.00 0.00 0.00 79 1008.9
20260506114509 63 124 1.7 10.4 0.00 0.00 0.00 80 1008.9
20260506113009 63 235 1.7 7.8 0.00 0.00 0.00 80 1009.1
20260506111509 62 172 2.6 8.7 0.00 0.00 0.00 80 1008.9
20260506110007 62 147 1.7 5.2 0.00 0.00 0.00 81 1009.0
20260506104504 62 177 1.7 6.1 0.00 0.00 0.00 80 1009.0
20260506103006 62 258 0.9 4.3 0.00 0.00 0.00 80 1009.0
20260506101501 62 123 0.9 3.5 0.00 0.00 0.00 80 1009.1
20260506100101 62 181 0.9 4.3 0.00 0.00 0.00 80 1008.9
20260506094600 61 152 0.9 3.5 0.00 0.00 0.00 80 1009.0
20260506093102 61 109 0.9 3.5 0.00 0.00 0.00 80 1008.9
20260506091550 61 126 0.9 5.2 0.00 0.00 0.00 79 1008.9
20260506090046 62 153 0.0 5.2 0.00 0.00 0.00 78 1009.0